AEZ2352 LIEE-LIML

Flight info

Callsign AEZ2352
Flight time 1h 4m
Altitude 30000
Route KOVAS DCT DEXUL DCT GIGGI DCT UPDUT DCT CORSI DCT OKROK DCT AKUTI DCT TORTU DCT ERTEV DCT OLETI DCT ITCAP
Aircraft B738/M-SDE2E3FGHIRWXY/LB1

Departure

Time 2026-05-01 08:03
Airport Cagliari Elmas Airport (LIEE)

Arrival

Time 2026-05-01 09:08
Airport Milano Linate Airport (LIML)
Time Latitude Longitude Altitude Speed Heading
2026-05-01 07:23 39.25262 9.05981 14 ft 0 kts 322°
2026-05-01 07:38 39.25222 9.06021 14 ft 4 kts 322°
2026-05-01 07:39 39.25201 9.06042 16 ft 4 kts 322°
2026-05-01 07:39 39.25180 9.06063 15 ft 3 kts 322°
2026-05-01 07:39 39.25177 9.06066 16 ft 0 kts 322°
2026-05-01 07:48 39.25183 9.06059 14 ft 5 kts 321°
2026-05-01 07:48 39.25196 9.06015 14 ft 0 kts 241°
2026-05-01 07:49 39.25195 9.06015 14 ft 0 kts 241°
2026-05-01 07:49 39.25191 9.06008 15 ft 0 kts 233°
2026-05-01 07:50 39.25191 9.06007 15 ft 0 kts 233°
2026-05-01 07:50 39.25189 9.06004 14 ft 3 kts 233°
2026-05-01 07:51 39.25174 9.05978 14 ft 3 kts 232°
2026-05-01 07:51 39.25156 9.05949 14 ft 6 kts 226°
2026-05-01 07:51 39.25105 9.05950 16 ft 10 kts 134°
2026-05-01 07:52 39.24967 9.06134 14 ft 18 kts 136°
2026-05-01 07:52 39.24858 9.06242 14 ft 21 kts 147°
2026-05-01 07:52 39.24732 9.06345 14 ft 21 kts 150°
2026-05-01 07:53 39.24491 9.06540 14 ft 17 kts 143°
2026-05-01 07:53 39.24428 9.06585 14 ft 7 kts 164°
2026-05-01 07:53 39.24387 9.06584 14 ft 0 kts 193°
2026-05-01 07:55 39.24368 9.06578 14 ft 0 kts 196°
2026-05-01 07:59 39.24320 9.06559 16 ft 1 kts 199°
2026-05-01 08:01 39.24279 9.06542 16 ft 5 kts 198°
2026-05-01 08:01 39.24247 9.06516 17 ft 8 kts 234°
2026-05-01 08:01 39.24257 9.06462 17 ft 0 kts 312°
2026-05-01 08:02 39.24257 9.06461 17 ft 0 kts 312°
2026-05-01 08:02 39.24260 9.06458 16 ft 2 kts 314°
2026-05-01 08:03 39.24747 9.05892 14 ft 109 kts 318°
2026-05-01 08:03 39.25444 9.05092 35 ft 155 kts 319°
2026-05-01 08:03 39.27119 9.03225 1049 ft 172 kts 324°
2026-05-01 08:04 39.29589 9.03003 1923 ft 197 kts 12°
2026-05-01 08:04 39.32326 9.03476 3487 ft 202 kts
2026-05-01 08:05 39.35125 9.03814 5012 ft 201 kts
2026-05-01 08:05 39.36530 9.03953 5693 ft 204 kts
2026-05-01 08:05 39.37950 9.04079 6435 ft 205 kts
2026-05-01 08:06 39.40927 9.04314 7504 ft 224 kts
2026-05-01 08:06 39.44187 9.04552 8734 ft 240 kts
2026-05-01 08:07 39.47543 9.04858 10350 ft 245 kts
2026-05-01 08:07 39.50963 9.05317 11884 ft 248 kts
2026-05-01 08:08 39.52692 9.05548 12637 ft 251 kts
2026-05-01 08:08 39.56191 9.06009 14152 ft 255 kts
2026-05-01 08:09 39.59757 9.06474 15483 ft 260 kts
2026-05-01 08:09 39.61570 9.06709 16146 ft 263 kts
2026-05-01 08:09 39.63398 9.06947 16832 ft 265 kts
2026-05-01 08:10 39.67078 9.07797 18176 ft 273 kts 12°
2026-05-01 08:10 39.70756 9.09090 19382 ft 278 kts 12°
2026-05-01 08:11 39.74524 9.10389 20615 ft 281 kts 11°
2026-05-01 08:11 39.78311 9.11665 21758 ft 286 kts 10°
2026-05-01 08:12 39.82216 9.12970 22934 ft 290 kts
2026-05-01 08:12 39.84154 9.13618 23490 ft 293 kts
2026-05-01 08:12 39.88167 9.14390 24454 ft 292 kts 358°
2026-05-01 08:13 39.90205 9.14488 24940 ft 294 kts 357°
2026-05-01 08:13 39.92252 9.14578 25409 ft 296 kts 357°
2026-05-01 08:13 39.96400 9.14769 26351 ft 299 kts 356°
2026-05-01 08:14 39.98461 9.14873 26919 ft 297 kts 356°
2026-05-01 08:14 40.00523 9.14979 27472 ft 295 kts 356°
2026-05-01 08:14 40.02575 9.15085 27962 ft 295 kts 356°
2026-05-01 08:14 40.04638 9.15190 28284 ft 301 kts 355°
2026-05-01 08:15 40.06770 9.15296 28408 ft 313 kts 356°
2026-05-01 08:15 40.11284 9.15526 28655 ft 337 kts 356°
2026-05-01 08:15 40.13668 9.15651 28796 ft 348 kts 356°
2026-05-01 08:16 40.16132 9.15782 28899 ft 360 kts 356°
2026-05-01 08:16 40.18673 9.15918 29008 ft 372 kts 356°
2026-05-01 08:16 40.21296 9.16057 29116 ft 382 kts 357°
2026-05-01 08:17 40.26729 9.16020 29284 ft 396 kts 347°
2026-05-01 08:17 40.32192 9.14408 29462 ft 411 kts 342°
2026-05-01 08:18 40.37846 9.12576 29591 ft 426 kts 342°
2026-05-01 08:18 40.43696 9.10709 29865 ft 437 kts 342°
2026-05-01 08:19 40.49609 9.08848 30544 ft 435 kts 342°
2026-05-01 08:19 40.52555 9.07922 30825 ft 436 kts 342°
2026-05-01 08:19 40.55507 9.06994 31129 ft 436 kts 342°
2026-05-01 08:19 40.58443 9.06070 31603 ft 432 kts 342°
2026-05-01 08:20 40.60371 9.05463 31885 ft 430 kts 342°
2026-05-01 08:20 40.64260 9.04235 32283 ft 430 kts 342°
2026-05-01 08:20 40.66185 9.03625 32464 ft 430 kts 342°
2026-05-01 08:20 40.69100 9.02702 32765 ft 430 kts 342°
2026-05-01 08:21 40.72983 9.01471 33213 ft 428 kts 342°
2026-05-01 08:21 40.74900 9.00863 33439 ft 428 kts 342°
2026-05-01 08:21 40.77790 8.99946 33744 ft 427 kts 342°
2026-05-01 08:21 40.80672 8.99030 34161 ft 424 kts 342°
2026-05-01 08:22 40.83543 8.98118 34209 ft 425 kts 342°
2026-05-01 08:22 40.89289 8.96288 34241 ft 425 kts 342°
2026-05-01 08:23 40.95047 8.94450 34248 ft 426 kts 342°
2026-05-01 08:23 41.00798 8.92612 34255 ft 425 kts 342°
2026-05-01 08:24 41.06547 8.90772 34240 ft 424 kts 342°
2026-05-01 08:24 41.12278 8.88933 34236 ft 423 kts 342°
2026-05-01 08:25 41.17994 8.87094 34241 ft 422 kts 342°
2026-05-01 08:25 41.23695 8.85260 34264 ft 421 kts 342°
2026-05-01 08:26 41.29282 8.83055 34249 ft 417 kts 338°
2026-05-01 08:26 41.34951 8.81357 34247 ft 422 kts 351°
2026-05-01 08:27 41.40869 8.81496 34237 ft 427 kts 358°
2026-05-01 08:27 41.46798 8.81874 34246 ft 426 kts 358°
2026-05-01 08:28 41.52703 8.82223 34236 ft 425 kts 358°
2026-05-01 08:28 41.58609 8.82545 34241 ft 424 kts 357°
2026-05-01 08:29 41.64498 8.82856 34242 ft 424 kts 357°
2026-05-01 08:29 41.70389 8.83166 34240 ft 423 kts 358°
2026-05-01 08:30 41.76266 8.83477 34237 ft 422 kts 357°
2026-05-01 08:30 41.82133 8.83788 34239 ft 422 kts 358°
2026-05-01 08:31 41.88001 8.84100 34243 ft 421 kts 358°
2026-05-01 08:31 41.93828 8.84412 34235 ft 418 kts 358°
2026-05-01 08:32 41.99593 8.84720 34230 ft 416 kts 358°
2026-05-01 08:32 42.05321 8.85026 34241 ft 414 kts 358°
2026-05-01 08:33 42.11080 8.85333 34247 ft 414 kts 359°
2026-05-01 08:33 42.16841 8.85636 34257 ft 415 kts 359°
2026-05-01 08:34 42.22625 8.85948 34242 ft 416 kts 359°
2026-05-01 08:34 42.28426 8.86262 34241 ft 419 kts 360°
2026-05-01 08:35 42.34267 8.86578 34231 ft 421 kts 360°
2026-05-01 08:35 42.40149 8.86897 34215 ft 426 kts 360°
2026-05-01 08:36 42.46088 8.87218 34205 ft 428 kts 360°
2026-05-01 08:36 42.52039 8.87540 34207 ft 428 kts 360°
2026-05-01 08:37 42.57978 8.87864 34244 ft 427 kts 360°
2026-05-01 08:37 42.63908 8.88186 34238 ft 426 kts 360°
2026-05-01 08:38 42.69832 8.88507 34253 ft 428 kts
2026-05-01 08:38 42.75819 8.88831 34264 ft 433 kts
2026-05-01 08:39 42.81845 8.89169 34273 ft 434 kts
2026-05-01 08:39 42.87866 8.89826 34296 ft 435 kts
2026-05-01 08:40 42.96910 8.90976 34306 ft 434 kts
2026-05-01 08:40 43.02923 8.91692 34312 ft 432 kts
2026-05-01 08:41 43.08857 8.92385 34324 ft 425 kts
2026-05-01 08:41 43.14732 8.93069 34330 ft 424 kts
2026-05-01 08:42 43.20620 8.93759 34329 ft 426 kts
2026-05-01 08:42 43.26534 8.94441 34329 ft 427 kts
2026-05-01 08:43 43.32464 8.95096 34335 ft 428 kts
2026-05-01 08:43 43.38393 8.95079 34349 ft 427 kts 353°
2026-05-01 08:44 43.41357 8.94880 34325 ft 427 kts
2026-05-01 08:44 43.44310 8.95268 34336 ft 427 kts
2026-05-01 08:44 43.50194 8.95778 34324 ft 423 kts
2026-05-01 08:45 43.56040 8.95827 34325 ft 412 kts
2026-05-01 08:45 43.61736 8.95785 34337 ft 411 kts 357°
2026-05-01 08:46 43.67435 8.95370 34333 ft 420 kts 14°
2026-05-01 08:46 43.73073 8.97988 34344 ft 429 kts 10°
2026-05-01 08:47 43.76015 8.98489 34238 ft 435 kts
2026-05-01 08:47 43.79115 8.98903 33560 ft 444 kts
2026-05-01 08:47 43.82145 8.99310 32850 ft 443 kts
2026-05-01 08:47 43.85199 8.99732 32106 ft 440 kts
2026-05-01 08:48 43.88236 9.00163 31315 ft 438 kts
2026-05-01 08:48 43.91275 9.00605 30506 ft 440 kts
2026-05-01 08:48 43.94327 9.01055 29551 ft 442 kts
2026-05-01 08:48 43.97396 9.01510 28643 ft 444 kts
2026-05-01 08:49 44.00467 9.02017 27673 ft 443 kts
2026-05-01 08:49 44.03515 9.02669 26577 ft 445 kts 11°
2026-05-01 08:49 44.06570 9.03393 25498 ft 446 kts 12°
2026-05-01 08:49 44.09628 9.04132 24605 ft 445 kts 12°
2026-05-01 08:50 44.12661 9.04855 23892 ft 439 kts 12°
2026-05-01 08:50 44.15633 9.05548 23406 ft 427 kts 11°
2026-05-01 08:50 44.18523 9.06209 22893 ft 416 kts 11°
2026-05-01 08:50 44.21364 9.06853 22104 ft 412 kts 11°
2026-05-01 08:51 44.24201 9.07494 20998 ft 417 kts 11°
2026-05-01 08:51 44.27063 9.08139 20080 ft 417 kts 11°
2026-05-01 08:51 44.29917 9.08781 19327 ft 413 kts 11°
2026-05-01 08:51 44.32735 9.09414 18736 ft 406 kts 12°
2026-05-01 08:52 44.35505 9.10036 18050 ft 400 kts 12°
2026-05-01 08:52 44.38234 9.10652 17301 ft 395 kts 12°
2026-05-01 08:52 44.40927 9.11266 16813 ft 385 kts 11°
2026-05-01 08:52 44.43504 9.11843 16110 ft 370 kts 11°
2026-05-01 08:53 44.46041 9.12412 15057 ft 370 kts 11°
2026-05-01 08:53 44.48569 9.12985 14471 ft 365 kts 11°
2026-05-01 08:53 44.51044 9.13546 13843 ft 358 kts 11°
2026-05-01 08:53 44.53495 9.14102 13221 ft 355 kts 11°
2026-05-01 08:54 44.55919 9.14656 12632 ft 352 kts 11°
2026-05-01 08:54 44.58311 9.15202 12070 ft 343 kts 11°
2026-05-01 08:54 44.60628 9.15726 11539 ft 331 kts 11°
2026-05-01 08:54 44.62849 9.16226 11434 ft 318 kts 10°
2026-05-01 08:55 44.65003 9.16713 11297 ft 309 kts 11°
2026-05-01 08:55 44.67106 9.17193 11170 ft 304 kts 11°
2026-05-01 08:55 44.69172 9.17665 11032 ft 296 kts 11°
2026-05-01 08:55 44.71174 9.18121 10946 ft 287 kts 11°
2026-05-01 08:56 44.73135 9.18568 10798 ft 284 kts 11°
2026-05-01 08:56 44.75077 9.19013 10688 ft 282 kts 11°
2026-05-01 08:56 44.76999 9.19452 10578 ft 278 kts 12°
2026-05-01 08:56 44.78903 9.19888 10465 ft 276 kts 12°
2026-05-01 08:57 44.80784 9.20318 10304 ft 276 kts 11°
2026-05-01 08:57 44.82700 9.20757 9990 ft 281 kts 11°
2026-05-01 08:57 44.84641 9.21204 9683 ft 283 kts 11°
2026-05-01 08:57 44.86578 9.21649 9381 ft 281 kts 11°
2026-05-01 08:58 44.88495 9.22090 9079 ft 279 kts 11°
2026-05-01 08:58 44.90404 9.22528 8779 ft 276 kts 11°
2026-05-01 08:58 44.92285 9.22960 8489 ft 272 kts 11°
2026-05-01 08:58 44.94120 9.23381 8183 ft 263 kts 11°
2026-05-01 08:59 44.95930 9.23798 7634 ft 263 kts 11°
2026-05-01 08:59 44.97721 9.24210 7302 ft 258 kts 11°
2026-05-01 08:59 44.99465 9.24611 7005 ft 250 kts 11°
2026-05-01 08:59 45.01157 9.25001 6735 ft 243 kts 11°
2026-05-01 09:00 45.02780 9.25371 6468 ft 237 kts 10°
2026-05-01 09:00 45.04385 9.25737 6207 ft 231 kts 11°
2026-05-01 09:00 45.05970 9.26108 5968 ft 226 kts 11°
2026-05-01 09:00 45.07507 9.26464 5727 ft 228 kts 11°
2026-05-01 09:01 45.09069 9.26825 5494 ft 227 kts 11°
2026-05-01 09:01 45.10594 9.27178 5397 ft 218 kts 11°
2026-05-01 09:01 45.12073 9.27519 5304 ft 213 kts 11°
2026-05-01 09:01 45.13519 9.27855 5202 ft 209 kts 11°
2026-05-01 09:02 45.14951 9.28186 5139 ft 208 kts 11°
2026-05-01 09:02 45.16385 9.28518 5043 ft 201 kts 12°
2026-05-01 09:02 45.17725 9.28828 4857 ft 196 kts 12°
2026-05-01 09:02 45.19053 9.29138 4656 ft 193 kts 12°
2026-05-01 09:03 45.20366 9.29444 4423 ft 189 kts 13°
2026-05-01 09:03 45.21657 9.29743 4227 ft 186 kts 13°
2026-05-01 09:03 45.22942 9.29984 4012 ft 190 kts
2026-05-01 09:03 45.24268 9.29914 3824 ft 190 kts 360°
2026-05-01 09:04 45.25584 9.29770 3626 ft 189 kts 358°
2026-05-01 09:04 45.26899 9.29620 3446 ft 191 kts
2026-05-01 09:04 45.28206 9.29476 3345 ft 185 kts
2026-05-01 09:04 45.29500 9.29334 3155 ft 188 kts
2026-05-01 09:05 45.30818 9.29191 2873 ft 190 kts
2026-05-01 09:05 45.32144 9.29048 2608 ft 191 kts
2026-05-01 09:05 45.33464 9.28903 2369 ft 190 kts
2026-05-01 09:05 45.34785 9.28766 2110 ft 188 kts
2026-05-01 09:06 45.35630 9.28675 1901 ft 180 kts
2026-05-01 09:06 45.37200 9.28502 1627 ft 159 kts
2026-05-01 09:06 45.37907 9.28417 1497 ft 148 kts 359°
2026-05-01 09:06 45.38928 9.28301 1265 ft 142 kts
2026-05-01 09:07 45.39880 9.28196 1105 ft 139 kts 358°
2026-05-01 09:07 45.40887 9.28084 894 ft 150 kts
2026-05-01 09:07 45.41927 9.27991 680 ft 149 kts 359°
2026-05-01 09:07 45.42946 9.27867 509 ft 146 kts 359°
2026-05-01 09:08 45.43952 9.27776 365 ft 140 kts 357°
2026-05-01 09:08 45.44841 9.27674 359 ft 112 kts 356°
2026-05-01 09:08 45.45300 9.27654 361 ft 36 kts 23°
2026-05-01 09:08 45.45435 9.27761 359 ft 13 kts 38°
2026-05-01 09:09 45.45516 9.27814 365 ft 13 kts
2026-05-01 09:09 45.45611 9.27815 359 ft 15 kts 360°
2026-05-01 09:09 45.45711 9.27813 359 ft 14 kts 359°
2026-05-01 09:09 45.45830 9.27817 359 ft 19 kts
2026-05-01 09:10 45.45906 9.27883 360 ft 14 kts 86°
2026-05-01 09:10 45.45905 9.28003 358 ft 8 kts 80°
2026-05-01 09:10 45.45949 9.28030 362 ft 7 kts
2026-05-01 09:10 45.45974 9.28031 361 ft 0 kts